EW4427 Weather Reports


Display with metric or nautical units.
time (UTC)temp
F
wind
direction
speed
MPH
gust
MPH
rain 1hr
in
rain 24hr
in
rain mn
in
humidity
%
barometer
mb
20260507150100 49 0 2.0 5.0 0.00 0.00 0.00 53 1013.9
20260507145543 48 47 0.0 6.0 0.00 0.00 0.00 55 1013.9
20260507145045 47 186 3.0 6.0 0.00 0.00 0.00 55 1014.0
20260507144548 48 213 1.0 5.0 0.00 0.00 0.00 56 1014.0
20260507144047 48 172 1.0 5.0 0.00 0.00 0.00 56 1014.1
20260507143542 47 0 1.0 5.0 0.00 0.00 0.00 59 1014.2
20260507143059 46 213 1.0 5.0 0.00 0.00 0.00 59 1014.3
20260507142547 46 215 2.0 5.0 0.00 0.00 0.00 59 1014.4
20260507142046 46 200 2.0 5.0 0.00 0.00 0.00 58 1014.5
20260507141619 46 198 0.0 4.0 0.00 0.00 0.00 57 1014.6
20260507141051 45 0 1.0 4.0 0.00 0.00 0.00 56 1014.6
20260507140547 46 227 1.0 4.0 0.00 0.00 0.00 59 1014.7
20260507140052 45 0 1.0 4.0 0.00 0.00 0.00 59 1014.5
20260507135546 45 213 1.0 5.0 0.00 0.00 0.00 61 1014.6
20260507135046 45 194 2.0 5.0 0.00 0.00 0.00 61 1014.7
20260507134549 45 207 0.0 3.0 0.00 0.00 0.00 60 1014.8
20260507134044 44 0 1.0 3.0 0.00 0.00 0.00 64 1014.8
20260507133546 44 0 1.0 3.0 0.00 0.00 0.00 64 1014.6
20260507133048 43 0 0.0 3.0 0.00 0.00 0.00 65 1014.8
20260507132545 43 192 0.0 1.0 0.00 0.00 0.00 68 1014.6
20260507132042 42 0 0.0 1.0 0.00 0.00 0.00 68 1014.8
20260507131551 42 0 0.0 1.0 0.00 0.00 0.00 68 1014.9
20260507131046 42 0 0.0 2.0 0.00 0.00 0.00 68 1014.9
20260507130546 41 0 0.0 2.0 0.00 0.00 0.00 69 1014.9
20260507130053 40 0 0.0 2.0 0.00 0.00 0.00 68 1014.9
20260507125548 40 0 0.0 3.0 0.00 0.00 0.00 71 1014.7
20260507125044 40 0 0.0 3.0 0.00 0.00 0.00 73 1014.7
20260507124552 39 0 0.0 3.0 0.00 0.00 0.00 72 1014.7
20260507124044 38 0 0.0 3.0 0.00 0.00 0.00 72 1014.7
20260507123544 37 200 0.0 0.0 0.00 0.00 0.00 74 1014.6
20260507123053 37 0 0.0 0.0 0.00 0.00 0.00 76 1014.6
20260507122546 36 0 0.0 1.0 0.00 0.00 0.00 76 1014.6
20260507122046 36 0 0.0 2.0 0.00 0.00 0.00 77 1014.5
20260507121550 36 0 0.0 2.0 0.00 0.00 0.00 77 1014.5
20260507121044 35 0 0.0 2.0 0.00 0.00 0.00 78 1014.5
20260507120545 35 0 0.0 1.0 0.00 0.00 0.00 78 1014.5
20260507115546 34 0 0.0 2.0 0.00 0.00 0.00 78 1014.4
20260507115049 34 224 0.0 2.0 0.00 0.00 0.00 78 1014.3
20260507114553 33 0 0.0 0.0 0.00 0.00 0.00 77 1014.1
20260507114047 33 0 0.0 0.0 0.00 0.00 0.00 76 1014.2
20260507113546 33 0 0.0 0.0 0.00 0.00 0.00 76 1014.1
20260507113053 33 0 0.0 0.0 0.00 0.00 0.00 76 1014.1
20260507112547 33 0 0.0 0.0 0.00 0.00 0.00 76 1014.1
20260507112047 33 0 0.0 0.0 0.00 0.00 0.00 76 1014.1
20260507111551 33 0 0.0 0.0 0.00 0.00 0.00 75 1014.0
20260507111047 33 0 0.0 1.0 0.00 0.00 0.00 75 1014.0
20260507110547 33 0 0.0 1.0 0.00 0.00 0.00 75 1014.0
20260507110056 33 0 0.0 0.0 0.00 0.00 0.00 74 1014.0
20260507105546 33 0 0.0 0.0 0.00 0.00 0.00 74 1013.9
20260507105046 33 0 0.0 0.0 0.00 0.00 0.00 74 1014.0
20260507104550 33 0 0.0 0.0 0.00 0.00 0.00 74 1014.0
20260507104046 33 0 0.0 0.0 0.00 0.00 0.00 74 1014.1
20260507103546 33 0 0.0 0.0 0.00 0.00 0.00 74 1014.0
20260507103053 33 0 0.0 0.0 0.00 0.00 0.00 74 1013.9
20260507102545 33 0 0.0 0.0 0.00 0.00 0.00 74 1014.0
20260507102046 33 0 0.0 0.0 0.00 0.00 0.00 73 1014.1
20260507101600 33 0 0.0 0.0 0.00 0.00 0.00 73 1014.0
20260507101045 33 0 0.0 0.0 0.00 0.00 0.00 73 1014.0
20260507100545 33 0 0.0 0.0 0.00 0.00 0.00 73 1014.1
20260507100059 33 0 0.0 0.0 0.00 0.00 0.00 73 1014.1
20260507095547 33 0 0.0 0.0 0.00 0.00 0.00 73 1014.1
20260507095049 33 0 0.0 0.0 0.00 0.00 0.00 73 1014.0
20260507094557 33 0 0.0 0.0 0.00 0.00 0.00 73 1014.0
20260507094046 33 0 0.0 0.0 0.00 0.00 0.00 73 1014.1
20260507093547 33 0 0.0 0.0 0.00 0.00 0.00 72 1014.0
20260507093052 33 0 0.0 0.0 0.00 0.00 0.00 72 1014.0
20260507092546 33 0 0.0 0.0 0.00 0.00 0.00 72 1014.0
20260507092045 33 0 0.0 0.0 0.00 0.00 0.00 72 1014.0
20260507091554 33 0 0.0 0.0 0.00 0.00 0.00 72 1014.0
20260507091046 33 0 0.0 0.0 0.00 0.00 0.00 72 1014.0
20260507090546 33 0 0.0 0.0 0.00 0.00 0.00 71 1014.0
20260507090100 34 0 0.0 0.0 0.00 0.00 0.00 71 1013.9
20260507085545 34 0 0.0 0.0 0.00 0.00 0.00 71 1014.0
20260507085047 34 0 0.0 0.0 0.00 0.00 0.00 71 1014.0
20260507084601 34 0 0.0 0.0 0.00 0.00 0.00 71 1014.0
20260507084046 34 0 0.0 0.0 0.00 0.00 0.00 71 1014.0
20260507083545 34 0 0.0 0.0 0.00 0.00 0.00 71 1014.0
20260507083056 34 0 0.0 0.0 0.00 0.00 0.00 71 1014.1
20260507082548 34 0 0.0 0.0 0.00 0.00 0.00 71 1014.0
20260507082046 34 0 0.0 0.0 0.00 0.00 0.00 71 1014.0
20260507081551 34 0 0.0 0.0 0.00 0.00 0.00 71 1014.1
20260507081044 34 0 0.0 0.0 0.00 0.00 0.00 71 1014.0
20260507080544 34 0 0.0 0.0 0.00 0.00 0.00 70 1014.0
20260507080056 34 0 0.0 0.0 0.00 0.00 0.00 70 1014.0
20260507075546 34 0 0.0 0.0 0.00 0.00 0.00 69 1014.0
20260507075044 34 0 0.0 0.0 0.00 0.00 0.00 69 1013.9
20260507074553 34 0 0.0 0.0 0.00 0.00 0.00 69 1014.2
20260507074043 34 0 0.0 0.0 0.00 0.00 0.00 69 1014.1
20260507073548 34 0 0.0 0.0 0.00 0.00 0.00 69 1014.1
20260507073121 34 0 0.0 0.0 0.00 0.00 0.00 68 1014.2
20260507072544 35 0 0.0 0.0 0.00 0.00 0.00 68 1014.3
20260507072044 35 0 0.0 0.0 0.00 0.00 0.00 68 1014.2
20260507071553 35 0 0.0 0.0 0.00 0.00 0.00 68 1014.2
20260507071045 35 0 0.0 0.0 0.00 0.00 0.00 68 1014.2
20260507070544 35 0 0.0 0.0 0.00 0.00 0.00 68 1014.4
20260507070051 35 0 0.0 0.0 0.00 0.00 0.00 68 1014.3
20260507065546 35 0 0.0 0.0 0.00 0.00 0.00 68 1014.4
20260507065044 35 0 0.0 0.0 0.00 0.00 0.00 67 1014.4
20260507064608 35 0 0.0 0.0 0.00 0.00 0.00 67 1014.4
20260507064044 35 0 0.0 0.0 0.00 0.00 0.00 67 1014.5
20260507063547 35 0 0.0 0.0 0.00 0.00 0.00 68 1014.7
20260507063057 35 0 0.0 0.0 0.00 0.00 0.00 68 1014.8
20260507062543 35 0 0.0 0.0 0.00 0.00 0.00 68 1014.9
20260507062043 35 0 0.0 0.0 0.00 0.00 0.00 68 1014.9
20260507061549 35 0 0.0 0.0 0.00 0.00 0.00 68 1014.9
20260507061042 35 0 0.0 0.0 0.00 0.00 0.00 68 1014.8
20260507060544 35 0 0.0 0.0 0.00 0.00 0.00 69 1014.8
20260507060051 35 0 0.0 0.0 0.00 0.00 0.00 69 1014.8
20260507055543 35 0 0.0 0.0 0.00 0.00 0.00 69 1014.8
20260507055044 35 0 0.0 0.0 0.00 0.00 0.00 69 1014.7
20260507054547 35 0 0.0 0.0 0.00 0.00 0.00 69 1014.8
20260507054043 35 0 0.0 0.0 0.00 0.00 0.00 69 1014.8
20260507053544 36 0 0.0 0.0 0.00 0.00 0.00 69 1015.0
20260507053050 36 0 0.0 0.0 0.00 0.00 0.00 69 1014.9
20260507052543 36 0 0.0 0.0 0.00 0.00 0.00 68 1014.9
20260507052043 36 0 0.0 0.0 0.00 0.00 0.00 68 1014.7
20260507051551 36 0 0.0 0.0 0.00 0.00 0.00 68 1014.9
20260507051044 36 0 0.0 0.0 0.00 0.00 0.00 68 1014.8
20260507050543 36 0 0.0 0.0 0.00 0.00 0.00 67 1015.0
20260507050056 37 0 0.0 0.0 0.00 0.00 0.00 67 1014.9
20260507045544 37 0 0.0 0.0 0.00 0.00 0.00 67 1014.9
20260507045043 37 0 0.0 0.0 0.00 0.00 0.00 67 1015.0
20260507044552 37 0 0.0 0.0 0.00 0.00 0.00 67 1014.9
20260507044043 37 0 0.0 0.0 0.00 0.00 0.00 67 1014.9
20260507043543 38 0 0.0 0.0 0.00 0.00 0.00 66 1014.9
20260507043049 38 0 0.0 0.0 0.00 0.00 0.00 65 1014.9
20260507042543 38 0 0.0 0.0 0.00 0.00 0.00 65 1014.9
20260507042043 38 0 0.0 0.0 0.00 0.00 0.00 64 1014.7
20260507041548 38 0 0.0 0.0 0.00 0.00 0.00 64 1014.9
20260507041047 39 0 0.0 0.0 0.00 0.00 0.00 63 1014.9
20260507040547 39 0 0.0 2.0 0.00 0.00 0.00 63 1014.9
20260507040056 39 0 0.0 2.0 0.00 0.00 0.00 62 1015.0
20260507035544 39 0 0.0 0.0 0.00 0.00 0.00 61 1015.1
20260507035043 40 0 0.0 0.0 0.00 0.00 0.00 61 1015.1
20260507034615 40 0 0.0 0.0 0.00 0.00 0.00 60 1015.1
20260507034044 40 0 0.0 0.0 0.00 0.00 0.00 61 1015.2
20260507033543 40 0 0.0 1.0 0.00 0.00 0.00 60 1015.2
20260507033103 40 0 0.0 1.0 0.00 0.00 0.00 60 1015.0
20260507032546 40 0 0.0 1.0 0.00 0.00 0.00 59 1015.1
20260507032046 41 0 0.0 3.0 0.00 0.00 0.00 60 1015.1
20260507031552 41 0 0.0 3.0 0.00 0.00 0.00 59 1015.0
20260507031044 41 0 0.0 0.0 0.00 0.00 0.00 59 1015.0
20260507030546 41 0 0.0 4.0 0.00 0.00 0.00 59 1015.0
20260507030054 41 0 0.0 4.0 0.00 0.00 0.00 58 1015.1
20260507025543 41 0 0.0 2.0 0.00 0.00 0.00 58 1015.0
20260507025043 42 0 0.0 2.0 0.00 0.00 0.00 57 1015.0
20260507024557 42 0 0.0 2.0 0.00 0.00 0.00 57 1015.0
20260507024048 42 0 0.0 2.0 0.00 0.00 0.00 57 1015.0
20260507023542 42 0 0.0 2.0 0.00 0.00 0.00 57 1014.9
20260507023050 42 0 0.0 4.0 0.00 0.00 0.00 57 1014.9
20260507022544 43 0 0.0 4.0 0.00 0.00 0.00 56 1014.7
20260507022044 43 0 0.0 4.0 0.00 0.00 0.00 56 1014.9
20260507021558 43 0 0.0 3.0 0.00 0.00 0.00 56 1014.6
20260507021048 43 95 0.0 4.0 0.00 0.00 0.00 56 1014.6
20260507020544 44 0 0.0 4.0 0.00 0.00 0.00 56 1014.5
20260507020051 44 0 0.0 4.0 0.00 0.00 0.00 55 1014.4
20260507015543 44 0 0.0 3.0 0.00 0.00 0.00 55 1014.3
20260507015044 44 0 0.0 3.0 0.00 0.00 0.00 55 1014.3
20260507014555 44 0 0.0 3.0 0.00 0.00 0.00 55 1014.1
20260507014046 44 0 0.0 2.0 0.00 0.00 0.00 54 1014.2
20260507013544 44 179 0.0 3.0 0.00 0.00 0.00 55 1014.1
20260507013114 45 0 0.0 3.0 0.00 0.00 0.00 54 1014.0
20260507012545 45 0 0.0 3.0 0.00 0.00 0.00 53 1014.0
20260507012045 45 0 0.0 3.0 0.00 0.00 0.00 53 1014.0
20260507011554 45 0 0.0 1.0 0.00 0.00 0.00 53 1013.8
20260507011049 46 0 0.0 2.0 0.00 0.00 0.00 53 1013.9
20260507010545 46 0 0.0 3.0 0.00 0.00 0.00 52 1013.8
20260507010054 46 0 0.0 3.0 0.00 0.00 0.00 53 1013.7
20260507005547 47 0 0.0 3.0 0.00 0.00 0.00 51 1013.7
20260507005044 47 0 0.0 4.0 0.00 0.00 0.00 50 1013.6
20260507004558 48 0 0.0 4.0 0.00 0.00 0.00 50 1013.5
20260507004045 48 89 0.0 2.0 0.00 0.00 0.00 49 1013.4
20260507003545 48 0 0.0 1.0 0.00 0.00 0.00 50 1013.4
20260507003100 49 0 0.0 3.0 0.00 0.00 0.00 50 1013.4
20260507002545 49 0 0.0 3.0 0.00 0.00 0.00 48 1013.4
20260507002047 49 0 0.0 3.0 0.00 0.00 0.00 47 1013.3
20260507001611 49 0 0.0 3.0 0.00 0.00 0.00 48 1013.3
20260507001045 49 194 0.0 3.0 0.00 0.00 0.00 49 1013.1
20260507000545 50 0 0.0 2.0 0.00 0.00 0.00 47 1013.0
20260507000057 50 0 0.0 4.0 0.00 0.00 0.00 47 1013.0
20260506235545 50 0 0.0 4.0 0.00 0.00 0.00 47 1013.1
20260506235045 50 168 1.0 4.0 0.00 0.00 0.00 47 1013.1
20260506234600 50 0 0.0 3.0 0.00 0.00 0.00 46 1013.1
20260506234045 50 0 0.0 2.0 0.00 0.00 0.00 48 1013.0
20260506233546 51 0 0.0 2.0 0.00 0.00 0.00 46 1013.0
20260506233108 51 0 0.0 3.0 0.00 0.00 0.00 46 1013.0
20260506232545 51 0 0.0 4.0 0.00 0.00 0.00 47 1013.0
20260506232045 51 0 0.0 4.0 0.00 0.00 0.00 45 1013.0
20260506231554 51 136 0.0 7.0 0.00 0.00 0.00 45 1012.9
20260506231045 51 19 1.0 7.0 0.00 0.00 0.00 44 1012.9
20260506230545 51 65 0.0 3.0 0.00 0.00 0.00 47 1013.0
20260506230058 51 192 0.0 2.0 0.00 0.00 0.00 47 1012.8
20260506225550 51 208 0.0 3.0 0.00 0.00 0.00 48 1012.9
20260506225046 51 304 0.0 4.0 0.00 0.00 0.00 46 1012.8
20260506224605 52 244 0.0 5.0 0.00 0.00 0.00 47 1012.7
20260506224045 52 205 0.0 5.0 0.00 0.00 0.00 46 1012.7
20260506223545 52 0 0.0 4.0 0.00 0.00 0.00 44 1012.7
20260506223059 52 0 0.0 4.0 0.00 0.00 0.00 44 1012.5
20260506222545 52 0 0.0 4.0 0.00 0.00 0.00 46 1012.6
20260506222046 52 196 0.0 2.0 0.00 0.00 0.00 45 1012.6
20260506221557 52 0 0.0 2.0 0.00 0.00 0.00 44 1012.4
20260506221045 52 0 0.0 3.0 0.00 0.00 0.00 46 1012.5
20260506220545 52 0 0.0 3.0 0.00 0.00 0.00 44 1012.4
20260506220104 53 0 0.0 3.0 0.00 0.00 0.00 45 1012.4
20260506215545 53 0 0.0 3.0 0.00 0.00 0.00 45 1012.4
20260506215045 53 0 0.0 3.0 0.00 0.00 0.00 45 1012.3
20260506214551 53 0 0.0 3.0 0.00 0.00 0.00 47 1012.4
20260506214044 53 0 0.0 3.0 0.00 0.00 0.00 45 1012.4
20260506213544 53 0 0.0 3.0 0.00 0.00 0.00 44 1012.4
20260506213057 53 173 0.0 3.0 0.00 0.00 0.00 47 1012.4
20260506212545 53 0 0.0 3.0 0.00 0.00 0.00 46 1012.4
20260506212045 53 0 0.0 3.0 0.00 0.00 0.00 44 1012.2
20260506211557 53 183 0.0 2.0 0.00 0.00 0.00 46 1012.3
20260506211044 54 0 0.0 2.0 0.00 0.00 0.00 45 1012.4
20260506210544 54 0 0.0 2.0 0.00 0.00 0.00 45 1012.4
20260506210057 54 0 0.0 2.0 0.00 0.00 0.00 45 1012.3
20260506205543 54 0 0.0 4.0 0.00 0.00 0.00 47 1012.3
20260506205043 54 0 0.0 4.0 0.00 0.00 0.00 44 1012.3
20260506204554 54 198 1.0 4.0 0.00 0.00 0.00 45 1012.3
20260506204043 54 0 0.0 3.0 0.00 0.00 0.00 46 1012.4
20260506203544 54 0 0.0 3.0 0.00 0.00 0.00 47 1012.4
20260506203059 54 0 0.0 4.0 0.00 0.00 0.00 43 1012.4
20260506202550 55 0 0.0 4.0 0.00 0.00 0.00 46 1012.5
20260506202048 55 240 1.0 3.0 0.00 0.00 0.00 45 1012.5
20260506201551 55 0 0.0 6.0 0.00 0.00 0.00 43 1012.5
20260506201048 55 242 0.0 7.0 0.00 0.00 0.00 44 1012.7
20260506200548 55 0 1.0 7.0 0.00 0.00 0.00 42 1012.6
20260506200054 55 222 2.0 6.0 0.00 0.00 0.00 41 1012.7
20260506195544 55 0 0.0 5.0 0.00 0.00 0.00 44 1012.6
20260506195047 54 0 2.0 5.0 0.00 0.00 0.00 43 1012.6
20260506194554 55 0 0.0 5.0 0.00 0.00 0.00 42 1012.7
20260506194046 55 0 0.0 5.0 0.00 0.00 0.00 42 1012.6
20260506193544 56 198 0.0 6.0 0.00 0.00 0.00 43 1012.7
20260506193053 56 0 1.0 6.0 0.00 0.00 0.00 44 1012.6
20260506192544 54 226 2.0 8.0 0.00 0.00 0.00 46 1012.5
20260506192045 54 205 2.0 8.0 0.00 0.00 0.00 46 1012.6
20260506191548 54 0 1.0 7.0 0.00 0.00 0.00 47 1012.7
20260506191044 54 230 1.0 7.0 0.00 0.00 0.00 46 1012.7
20260506190547 54 0 2.0 6.0 0.00 0.00 0.00 44 1012.7
20260506190052 55 221 1.0 4.0 0.00 0.00 0.00 45 1012.7
20260506185545 55 188 0.0 4.0 0.00 0.00 0.00 43 1012.8
20260506185046 56 212 1.0 7.0 0.00 0.00 0.00 40 1012.6
20260506184554 58 0 0.0 7.0 0.00 0.00 0.00 41 1012.7
20260506184047 57 246 1.0 5.0 0.00 0.00 0.00 43 1012.5
20260506183547 55 184 0.0 3.0 0.00 0.00 0.00 44 1012.6
20260506183100 54 202 0.0 7.0 0.00 0.00 0.00 42 1012.5
20260506182548 55 217 0.0 7.0 0.00 0.00 0.00 48 1012.7
20260506182044 55 248 1.0 5.0 0.00 0.00 0.00 43 1012.7
20260506181625 56 196 0.0 5.0 0.00 0.00 0.00 43 1012.6
20260506181045 57 0 1.0 5.0 0.00 0.00 0.00 39 1012.4
20260506180545 55 188 1.0 5.0 0.00 0.00 0.00 49 1012.5
20260506180058 54 220 0.0 5.0 0.00 0.00 0.00 48 1012.5
20260506175544 53 214 1.0 6.0 0.00 0.00 0.00 44 1012.7
20260506175045 53 0 1.0 6.0 0.00 0.00 0.00 46 1012.7
20260506174555 54 217 2.0 5.0 0.00 0.00 0.00 48 1012.8
20260506174044 54 187 1.0 4.0 0.00 0.00 0.00 47 1012.8
20260506173545 54 200 0.0 6.0 0.00 0.00 0.00 48 1012.9
20260506173120 54 186 1.0 6.0 0.00 0.00 0.00 43 1013.0
20260506172547 53 220 0.0 5.0 0.00 0.00 0.00 45 1012.9
20260506172045 53 46 0.0 5.0 0.00 0.00 0.00 46 1013.0
20260506171601 54 0 0.0 4.0 0.00 0.00 0.00 42 1013.0
20260506171045 55 211 1.0 4.0 0.00 0.00 0.00 46 1013.1
20260506170544 54 197 0.0 4.0 0.00 0.00 0.00 48 1013.3
20260506170104 54 0 0.0 4.0 0.00 0.00 0.00 48 1013.2
20260506165547 54 0 0.0 4.0 0.00 0.00 0.00 48 1013.3
20260506165045 54 259 0.0 2.0 0.00 0.00 0.00 46 1013.3
20260506164559 54 0 0.0 3.0 0.00 0.00 0.00 45 1013.1
20260506164048 53 0 0.0 6.0 0.00 0.00 0.00 46 1013.3
20260506163548 53 0 0.0 6.0 0.00 0.00 0.00 48 1013.3
20260506163059 53 0 0.0 5.0 0.00 0.00 0.00 46 1013.2
20260506162546 52 0 0.0 5.0 0.00 0.00 0.00 49 1013.3
20260506162047 53 150 0.0 3.0 0.00 0.00 0.00 43 1013.3
20260506161550 53 86 0.0 4.0 0.00 0.00 0.00 45 1013.2
20260506161044 52 0 1.0 4.0 0.00 0.00 0.00 49 1013.2
20260506160544 52 209 0.0 4.0 0.00 0.00 0.00 45 1013.2
20260506160108 53 169 0.0 3.0 0.00 0.00 0.00 46 1013.2
20260506155545 54 173 0.0 3.0 0.00 0.00 0.00 46 1013.0
20260506155045 54 64 0.0 5.0 0.00 0.00 0.00 49 1013.0
20260506154555 52 0 0.0 5.0 0.00 0.00 0.00 43 1013.1
20260506154045 53 0 0.0 4.0 0.00 0.00 0.00 44 1013.1
20260506153545 53 173 0.0 4.0 0.00 0.00 0.00 45 1013.1
20260506153053 54 190 0.0 4.0 0.00 0.00 0.00 49 1013.0
20260506152547 52 32 0.0 5.0 0.00 0.00 0.00 49 1012.9
20260506152045 50 0 0.0 5.0 0.00 0.00 0.00 51 1012.9
20260506151551 50 185 0.0 4.0 0.00 0.00 0.00 50 1012.9
20260506151044 51 195 0.0 2.0 0.00 0.00 0.00 49 1013.0
20260506150544 51 233 0.0 4.0 0.00 0.00 0.00 49 1013.0